Year,Month,Day,Hour,Minute,Value (Times are PST for temperature in C)
2012,06,20,00,00,10.00
2012,06,20,00,01,9.90
2012,06,20,00,02,9.90
2012,06,20,00,03,9.80
2012,06,20,00,04,9.80
2012,06,20,00,05,9.80
2012,06,20,00,06,9.70
2012,06,20,00,07,9.70
2012,06,20,00,08,9.70
2012,06,20,00,09,9.70
2012,06,20,00,10,9.70
2012,06,20,00,11,9.60
2012,06,20,00,12,9.60
2012,06,20,00,13,9.60
2012,06,20,00,14,9.60
2012,06,20,00,15,9.60
2012,06,20,00,16,9.60
2012,06,20,00,17,9.60
2012,06,20,00,18,9.50
2012,06,20,00,19,9.50
2012,06,20,00,20,9.40
2012,06,20,00,21,9.40
2012,06,20,00,22,9.40
2012,06,20,00,23,9.40
2012,06,20,00,24,9.30
2012,06,20,00,25,9.30
2012,06,20,00,26,9.30
2012,06,20,00,27,9.30
2012,06,20,00,28,9.30
2012,06,20,00,29,9.30
2012,06,20,00,30,9.30
2012,06,20,00,31,9.30
2012,06,20,00,32,9.20
2012,06,20,00,33,9.20
2012,06,20,00,34,9.20
2012,06,20,00,35,9.20
2012,06,20,00,36,9.20
2012,06,20,00,37,9.20
2012,06,20,00,38,9.20
2012,06,20,00,39,9.20
2012,06,20,00,40,9.20
2012,06,20,00,41,9.20
2012,06,20,00,42,9.20
2012,06,20,00,43,9.20
2012,06,20,00,44,9.20
2012,06,20,00,45,9.20
2012,06,20,00,46,9.20
2012,06,20,00,47,9.20
2012,06,20,00,48,9.20
2012,06,20,00,49,9.10
2012,06,20,00,50,9.10
2012,06,20,00,51,9.10
2012,06,20,00,52,9.10
2012,06,20,00,53,9.10
2012,06,20,00,54,9.10
2012,06,20,00,55,9.10
2012,06,20,00,56,9.00
2012,06,20,00,57,9.00
2012,06,20,00,58,9.00
2012,06,20,00,59,8.90
2012,06,20,01,00,8.90
2012,06,20,01,01,8.90
2012,06,20,01,02,8.80
2012,06,20,01,03,8.80
2012,06,20,01,04,8.80
2012,06,20,01,05,8.80
2012,06,20,01,06,8.80
2012,06,20,01,07,8.70
2012,06,20,01,08,8.70
2012,06,20,01,09,8.70
2012,06,20,01,10,8.70
2012,06,20,01,11,8.70
2012,06,20,01,12,8.70
2012,06,20,01,13,8.70
2012,06,20,01,14,8.70
2012,06,20,01,15,8.60
2012,06,20,01,16,8.60
2012,06,20,01,17,8.60
2012,06,20,01,18,8.60
2012,06,20,01,19,8.60
2012,06,20,01,20,8.60
2012,06,20,01,21,8.60
2012,06,20,01,22,8.60
2012,06,20,01,23,8.60
2012,06,20,01,24,8.60
2012,06,20,01,25,8.50
2012,06,20,01,26,8.50
2012,06,20,01,27,8.50
2012,06,20,01,28,8.50
2012,06,20,01,29,8.50
2012,06,20,01,30,8.50
2012,06,20,01,31,8.50
2012,06,20,01,32,8.50
2012,06,20,01,33,8.50
2012,06,20,01,34,8.40
2012,06,20,01,35,8.50
2012,06,20,01,36,8.50
2012,06,20,01,37,8.50
2012,06,20,01,38,8.50
2012,06,20,01,39,8.40
2012,06,20,01,40,8.40
2012,06,20,01,41,8.40
2012,06,20,01,42,8.40
2012,06,20,01,43,8.40
2012,06,20,01,44,8.40
2012,06,20,01,45,8.40
2012,06,20,01,46,8.30
2012,06,20,01,47,8.30
2012,06,20,01,48,8.30
2012,06,20,01,49,8.30
2012,06,20,01,50,8.30
2012,06,20,01,51,8.30
2012,06,20,01,52,8.30
2012,06,20,01,53,8.30
2012,06,20,01,54,8.30
2012,06,20,01,55,8.30
2012,06,20,01,56,8.20
2012,06,20,01,57,8.20
2012,06,20,01,58,8.20
2012,06,20,01,59,8.20
2012,06,20,02,00,8.20
2012,06,20,02,01,8.20
2012,06,20,02,02,8.20
2012,06,20,02,03,8.10
2012,06,20,02,04,8.10
2012,06,20,02,05,8.10
2012,06,20,02,06,8.10
2012,06,20,02,07,8.10
2012,06,20,02,08,8.10
2012,06,20,02,09,8.00
2012,06,20,02,10,8.00
2012,06,20,02,11,8.00
2012,06,20,02,12,8.00
2012,06,20,02,13,8.00
2012,06,20,02,14,8.00
2012,06,20,02,15,8.00
2012,06,20,02,16,8.00
2012,06,20,02,17,8.00
2012,06,20,02,18,8.00
2012,06,20,02,19,8.00
2012,06,20,02,20,8.00
2012,06,20,02,21,8.00
2012,06,20,02,22,8.00
2012,06,20,02,23,8.00
2012,06,20,02,24,8.00
2012,06,20,02,25,7.90
2012,06,20,02,26,7.90
2012,06,20,02,27,7.90
2012,06,20,02,28,7.90
2012,06,20,02,29,7.90
2012,06,20,02,30,7.90
2012,06,20,02,31,7.90
2012,06,20,02,32,7.90
2012,06,20,02,33,7.90
2012,06,20,02,34,7.90
2012,06,20,02,35,7.90
2012,06,20,02,36,7.90
2012,06,20,02,37,7.90
2012,06,20,02,38,7.90
2012,06,20,02,39,7.90
2012,06,20,02,40,7.90
2012,06,20,02,41,7.90
2012,06,20,02,42,8.00
2012,06,20,02,43,8.00
2012,06,20,02,44,8.00
2012,06,20,02,45,8.00
2012,06,20,02,46,8.00
2012,06,20,02,47,8.00
2012,06,20,02,48,8.00
2012,06,20,02,49,8.00
2012,06,20,02,50,8.00
2012,06,20,02,51,8.00
2012,06,20,02,52,8.00
2012,06,20,02,53,8.00
2012,06,20,02,54,8.10
2012,06,20,02,55,8.00
2012,06,20,02,56,8.00
2012,06,20,02,57,8.00
2012,06,20,02,58,8.00
2012,06,20,02,59,8.00
2012,06,20,03,00,8.00
2012,06,20,03,01,8.00
2012,06,20,03,02,8.00
2012,06,20,03,03,8.00
2012,06,20,03,04,7.90
2012,06,20,03,05,7.90
2012,06,20,03,06,7.90
2012,06,20,03,07,7.90
2012,06,20,03,08,7.90
2012,06,20,03,09,7.90
2012,06,20,03,10,7.90
2012,06,20,03,11,7.90
2012,06,20,03,12,7.90
2012,06,20,03,13,7.90
2012,06,20,03,14,7.90
2012,06,20,03,15,7.90
2012,06,20,03,16,7.90
2012,06,20,03,17,7.90
2012,06,20,03,18,7.90
2012,06,20,03,19,7.90
2012,06,20,03,20,7.90
2012,06,20,03,21,7.90
2012,06,20,03,22,7.90
2012,06,20,03,23,7.90
2012,06,20,03,24,7.90
2012,06,20,03,25,7.90
2012,06,20,03,26,7.90
2012,06,20,03,27,7.90
2012,06,20,03,28,7.90
2012,06,20,03,29,7.90
2012,06,20,03,30,7.90
2012,06,20,03,31,7.90
2012,06,20,03,32,7.90
2012,06,20,03,33,7.80
2012,06,20,03,34,7.80
2012,06,20,03,35,7.80
2012,06,20,03,36,7.80
2012,06,20,03,37,7.80
2012,06,20,03,38,7.80
2012,06,20,03,39,7.80
2012,06,20,03,40,7.70
2012,06,20,03,41,7.70
2012,06,20,03,42,7.70
2012,06,20,03,43,7.70
2012,06,20,03,44,7.70
2012,06,20,03,45,7.70
2012,06,20,03,46,7.70
2012,06,20,03,47,7.70
2012,06,20,03,48,7.60
2012,06,20,03,49,7.60
2012,06,20,03,50,7.60
2012,06,20,03,51,7.60
2012,06,20,03,52,7.60
2012,06,20,03,53,7.60
2012,06,20,03,54,7.60
2012,06,20,03,55,7.60
2012,06,20,03,56,7.60
2012,06,20,03,57,7.60
2012,06,20,03,58,7.60
2012,06,20,03,59,7.60
2012,06,20,04,00,7.50
2012,06,20,04,01,7.50
2012,06,20,04,02,7.40
2012,06,20,04,03,7.40
2012,06,20,04,04,7.40
2012,06,20,04,05,7.40
2012,06,20,04,06,7.40
2012,06,20,04,07,7.30
2012,06,20,04,08,7.30
2012,06,20,04,09,7.40
2012,06,20,04,10,7.40
2012,06,20,04,11,7.50
2012,06,20,04,12,7.50
2012,06,20,04,13,7.50
2012,06,20,04,14,7.60
2012,06,20,04,15,7.60
2012,06,20,04,16,7.60
2012,06,20,04,17,7.60
2012,06,20,04,18,7.80
2012,06,20,04,19,7.90
2012,06,20,04,20,8.00
2012,06,20,04,21,8.10
2012,06,20,04,22,8.20
2012,06,20,04,23,8.30
2012,06,20,04,24,8.30
2012,06,20,04,25,8.40
2012,06,20,04,26,8.40
2012,06,20,04,27,8.40
2012,06,20,04,28,8.40
2012,06,20,04,29,8.40
2012,06,20,04,30,8.40
2012,06,20,04,31,8.40
2012,06,20,04,32,8.40
2012,06,20,04,33,8.30
2012,06,20,04,34,8.30
2012,06,20,04,35,8.30
2012,06,20,04,36,8.20
2012,06,20,04,37,8.20
2012,06,20,04,38,8.10
2012,06,20,04,39,8.00
2012,06,20,04,40,8.00
2012,06,20,04,41,7.90
2012,06,20,04,42,7.90
2012,06,20,04,43,7.80
2012,06,20,04,44,7.80
2012,06,20,04,45,7.80
2012,06,20,04,46,7.80
2012,06,20,04,47,7.70
2012,06,20,04,48,7.70
2012,06,20,04,49,7.70
2012,06,20,04,50,7.70
2012,06,20,04,51,7.70
2012,06,20,04,52,7.70
2012,06,20,04,53,7.60
2012,06,20,04,54,7.60
2012,06,20,04,55,7.60
2012,06,20,04,56,7.70
2012,06,20,04,57,7.60
2012,06,20,04,58,7.70
2012,06,20,04,59,7.70
2012,06,20,05,00,7.80
2012,06,20,05,01,7.80
2012,06,20,05,02,7.90
2012,06,20,05,03,7.90
2012,06,20,05,04,8.00
2012,06,20,05,05,8.10
2012,06,20,05,06,8.20
2012,06,20,05,07,8.30
2012,06,20,05,08,8.30
2012,06,20,05,09,8.30
2012,06,20,05,10,8.30
2012,06,20,05,11,8.30
2012,06,20,05,12,8.40
2012,06,20,05,13,8.50
2012,06,20,05,14,8.50
2012,06,20,05,15,8.50
2012,06,20,05,16,8.60
2012,06,20,05,17,8.60
2012,06,20,05,18,8.60
2012,06,20,05,19,8.60
2012,06,20,05,20,8.70
2012,06,20,05,21,8.70
2012,06,20,05,22,8.70
2012,06,20,05,23,8.70
2012,06,20,05,24,8.70
2012,06,20,05,25,8.70
2012,06,20,05,26,8.70
2012,06,20,05,27,8.70
2012,06,20,05,28,8.60
2012,06,20,05,29,8.60
2012,06,20,05,30,8.60
2012,06,20,05,31,8.60
2012,06,20,05,32,8.60
2012,06,20,05,33,8.60
2012,06,20,05,34,8.60
2012,06,20,05,35,8.60
2012,06,20,05,36,8.60
2012,06,20,05,37,8.60
2012,06,20,05,38,8.60
2012,06,20,05,39,8.60
2012,06,20,05,40,8.60
2012,06,20,05,41,8.60
2012,06,20,05,42,8.60
2012,06,20,05,43,8.60
2012,06,20,05,44,8.60
2012,06,20,05,45,8.60
2012,06,20,05,46,8.60
2012,06,20,05,47,8.60
2012,06,20,05,48,8.60
2012,06,20,05,49,8.60
2012,06,20,05,50,8.60
2012,06,20,05,51,8.60
2012,06,20,05,52,8.70
2012,06,20,05,53,8.70
2012,06,20,05,54,8.80
2012,06,20,05,55,8.80
2012,06,20,05,56,8.80
2012,06,20,05,57,8.80
2012,06,20,05,58,8.80
2012,06,20,05,59,8.80
2012,06,20,06,00,8.80
2012,06,20,06,01,8.90
2012,06,20,06,02,8.90
2012,06,20,06,03,8.90
2012,06,20,06,04,8.90
2012,06,20,06,05,8.90
2012,06,20,06,06,8.90
2012,06,20,06,07,8.90
2012,06,20,06,08,8.90
2012,06,20,06,09,8.90
2012,06,20,06,10,9.00
2012,06,20,06,11,9.00
2012,06,20,06,12,9.00
2012,06,20,06,13,9.00
2012,06,20,06,14,9.10
2012,06,20,06,15,9.10
2012,06,20,06,16,9.10
2012,06,20,06,17,9.10
2012,06,20,06,18,9.20
2012,06,20,06,19,9.20
2012,06,20,06,20,9.20
2012,06,20,06,21,9.20
2012,06,20,06,22,9.20
2012,06,20,06,23,9.20
2012,06,20,06,24,9.30
2012,06,20,06,25,9.30
2012,06,20,06,26,9.30
2012,06,20,06,27,9.30
2012,06,20,06,28,9.30
2012,06,20,06,29,9.30
2012,06,20,06,30,9.40
2012,06,20,06,31,9.40
2012,06,20,06,32,9.40
2012,06,20,06,33,9.40
2012,06,20,06,34,9.40
2012,06,20,06,35,9.40
2012,06,20,06,36,9.50
2012,06,20,06,37,9.50
2012,06,20,06,38,9.50
2012,06,20,06,39,9.50
2012,06,20,06,40,9.60
2012,06,20,06,41,9.60
2012,06,20,06,42,9.60
2012,06,20,06,43,9.60
2012,06,20,06,44,9.60
2012,06,20,06,45,9.60
2012,06,20,06,46,9.60
2012,06,20,06,47,9.60
2012,06,20,06,48,9.60
2012,06,20,06,49,9.60
2012,06,20,06,50,9.70
2012,06,20,06,51,9.70
2012,06,20,06,52,9.70
2012,06,20,06,53,9.70
2012,06,20,06,54,9.70
2012,06,20,06,55,9.70
2012,06,20,06,56,9.70
2012,06,20,06,57,9.80
2012,06,20,06,58,9.80
2012,06,20,06,59,9.80
2012,06,20,07,00,9.80
2012,06,20,07,01,9.80
2012,06,20,07,02,9.90
2012,06,20,07,03,9.90
2012,06,20,07,04,9.90
2012,06,20,07,05,10.00
2012,06,20,07,06,10.00
2012,06,20,07,07,10.00
2012,06,20,07,08,10.10
2012,06,20,07,09,10.10
2012,06,20,07,10,10.10
2012,06,20,07,11,10.20
2012,06,20,07,12,10.20
2012,06,20,07,13,10.30
2012,06,20,07,14,10.30
2012,06,20,07,15,10.30
2012,06,20,07,16,10.30
2012,06,20,07,17,10.40
2012,06,20,07,18,10.40
2012,06,20,07,19,10.40
2012,06,20,07,20,10.50
2012,06,20,07,21,10.50
2012,06,20,07,22,10.60
2012,06,20,07,23,10.60
2012,06,20,07,24,10.60
2012,06,20,07,25,10.60
2012,06,20,07,26,10.60
2012,06,20,07,27,10.60
2012,06,20,07,28,10.70
2012,06,20,07,29,10.70
2012,06,20,07,30,10.70
2012,06,20,07,31,10.80
2012,06,20,07,32,10.80
2012,06,20,07,33,10.80
2012,06,20,07,34,10.90
2012,06,20,07,35,10.90
2012,06,20,07,36,11.00
2012,06,20,07,37,11.10
2012,06,20,07,38,11.10
2012,06,20,07,39,11.10
2012,06,20,07,40,11.10
2012,06,20,07,41,11.20
2012,06,20,07,42,11.20
2012,06,20,07,43,11.20
2012,06,20,07,44,11.20
2012,06,20,07,45,11.20
2012,06,20,07,46,11.20
2012,06,20,07,47,11.20
2012,06,20,07,48,11.20
2012,06,20,07,49,11.20
2012,06,20,07,50,11.30
2012,06,20,07,51,11.30
2012,06,20,07,52,11.40
2012,06,20,07,53,11.40
2012,06,20,07,54,11.50
2012,06,20,07,55,11.50
2012,06,20,07,56,11.50
2012,06,20,07,57,11.60
2012,06,20,07,58,11.60
2012,06,20,07,59,11.70
2012,06,20,08,00,11.70
2012,06,20,08,01,11.80
2012,06,20,08,02,11.80
2012,06,20,08,03,11.80
2012,06,20,08,04,11.80
2012,06,20,08,05,11.80
2012,06,20,08,06,11.80
2012,06,20,08,07,11.80
2012,06,20,08,08,11.90
2012,06,20,08,09,11.90
2012,06,20,08,10,11.90
2012,06,20,08,11,11.90
2012,06,20,08,12,12.00
2012,06,20,08,13,12.00
2012,06,20,08,14,12.00
2012,06,20,08,15,12.00
2012,06,20,08,16,12.10
2012,06,20,08,17,12.00
2012,06,20,08,18,12.00
2012,06,20,08,19,12.10
2012,06,20,08,20,12.10
2012,06,20,08,21,12.20
2012,06,20,08,22,12.20
2012,06,20,08,23,12.20
2012,06,20,08,24,12.30
2012,06,20,08,25,12.30
2012,06,20,08,26,12.30
2012,06,20,08,27,12.30
2012,06,20,08,28,12.40
2012,06,20,08,29,12.40
2012,06,20,08,30,12.50
2012,06,20,08,31,12.60
2012,06,20,08,32,12.60
2012,06,20,08,33,12.60
2012,06,20,08,34,12.60
2012,06,20,08,35,12.60
2012,06,20,08,36,12.60
2012,06,20,08,37,12.70
2012,06,20,08,38,12.70
2012,06,20,08,39,12.70
2012,06,20,08,40,12.70
2012,06,20,08,41,12.80
2012,06,20,08,42,12.80
2012,06,20,08,43,12.80
2012,06,20,08,44,12.90
2012,06,20,08,45,12.90
2012,06,20,08,46,13.00
2012,06,20,08,47,13.00
2012,06,20,08,48,13.10
2012,06,20,08,49,13.00
2012,06,20,08,50,13.00
2012,06,20,08,51,12.90
2012,06,20,08,52,12.90
2012,06,20,08,53,13.00
2012,06,20,08,54,13.00
2012,06,20,08,55,13.10
2012,06,20,08,56,13.10
2012,06,20,08,57,13.10
2012,06,20,08,58,13.10
2012,06,20,08,59,13.10
2012,06,20,09,00,13.10
2012,06,20,09,01,13.10
2012,06,20,09,02,13.20
2012,06,20,09,03,13.30
2012,06,20,09,04,13.40
2012,06,20,09,05,13.50
2012,06,20,09,06,13.50
2012,06,20,09,07,13.60
2012,06,20,09,08,13.70
2012,06,20,09,09,13.70
2012,06,20,09,10,13.70
2012,06,20,09,11,13.80
2012,06,20,09,12,13.80
2012,06,20,09,13,13.90
2012,06,20,09,14,13.90
2012,06,20,09,15,14.00
2012,06,20,09,16,14.10
2012,06,20,09,17,14.30
2012,06,20,09,18,14.40
2012,06,20,09,19,14.40
2012,06,20,09,20,14.50
2012,06,20,09,21,14.60
2012,06,20,09,22,14.60
2012,06,20,09,23,14.60
2012,06,20,09,24,14.60
2012,06,20,09,25,14.70
2012,06,20,09,26,14.70
2012,06,20,09,27,14.80
2012,06,20,09,28,14.90
2012,06,20,09,29,15.00
2012,06,20,09,30,15.00
2012,06,20,09,31,15.00
2012,06,20,09,32,15.00
2012,06,20,09,33,15.00
2012,06,20,09,34,15.00
2012,06,20,09,35,15.10
2012,06,20,09,36,15.20
2012,06,20,09,37,15.20
2012,06,20,09,38,15.20
2012,06,20,09,39,15.20
2012,06,20,09,40,15.20
2012,06,20,09,41,15.10
2012,06,20,09,42,15.00
2012,06,20,09,43,15.10
2012,06,20,09,44,15.20
2012,06,20,09,45,15.20
2012,06,20,09,46,15.20
2012,06,20,09,47,15.30
2012,06,20,09,48,15.30
2012,06,20,09,49,15.40
2012,06,20,09,50,15.50
2012,06,20,09,51,15.60
2012,06,20,09,52,15.70
2012,06,20,09,53,15.90
2012,06,20,09,54,16.00
2012,06,20,09,55,16.10
2012,06,20,09,56,16.10
2012,06,20,09,57,16.10
2012,06,20,09,58,16.10
2012,06,20,09,59,16.00
2012,06,20,10,00,16.00
2012,06,20,10,01,15.90
2012,06,20,10,02,16.00
2012,06,20,10,03,16.00
2012,06,20,10,04,16.10
2012,06,20,10,05,16.10
2012,06,20,10,06,16.00
2012,06,20,10,07,16.00
2012,06,20,10,08,16.00
2012,06,20,10,09,16.10
2012,06,20,10,10,16.20
2012,06,20,10,11,16.20
2012,06,20,10,12,16.20
2012,06,20,10,13,16.20
2012,06,20,10,14,16.30
2012,06,20,10,15,16.20
2012,06,20,10,16,16.20
2012,06,20,10,17,16.20
2012,06,20,10,18,16.20
2012,06,20,10,19,16.30
2012,06,20,10,20,16.40
2012,06,20,10,21,16.50
2012,06,20,10,22,16.60
2012,06,20,10,23,16.70
2012,06,20,10,24,16.70
2012,06,20,10,25,16.70
2012,06,20,10,26,16.70
2012,06,20,10,27,16.60
2012,06,20,10,28,16.60
2012,06,20,10,29,16.60
2012,06,20,10,30,16.50
2012,06,20,10,31,16.50
2012,06,20,10,32,16.60
2012,06,20,10,33,16.60
2012,06,20,10,34,16.60
2012,06,20,10,35,16.60
2012,06,20,10,36,16.50
2012,06,20,10,37,16.40
2012,06,20,10,38,16.30
2012,06,20,10,39,16.20
2012,06,20,10,40,16.20
2012,06,20,10,41,16.20
2012,06,20,10,42,16.20
2012,06,20,10,43,16.20
2012,06,20,10,44,16.10
2012,06,20,10,45,16.00
2012,06,20,10,46,15.90
2012,06,20,10,47,15.90
2012,06,20,10,48,15.90
2012,06,20,10,49,16.00
2012,06,20,10,50,16.00
2012,06,20,10,51,16.00
2012,06,20,10,52,16.10
2012,06,20,10,53,16.20
2012,06,20,10,54,16.40
2012,06,20,10,55,16.60
2012,06,20,10,56,16.70
2012,06,20,10,57,16.80
2012,06,20,10,58,16.70
2012,06,20,10,59,16.70
2012,06,20,11,00,16.70
2012,06,20,11,01,16.70
2012,06,20,11,02,16.70
2012,06,20,11,03,16.60
2012,06,20,11,04,16.60
2012,06,20,11,05,16.60
2012,06,20,11,06,16.50
2012,06,20,11,07,16.50
2012,06,20,11,08,16.60
2012,06,20,11,09,16.80
2012,06,20,11,10,16.90
2012,06,20,11,11,17.00
2012,06,20,11,12,17.10
2012,06,20,11,13,17.00
2012,06,20,11,14,16.90
2012,06,20,11,15,16.80
2012,06,20,11,16,16.70
2012,06,20,11,17,16.70
2012,06,20,11,18,16.80
2012,06,20,11,19,16.70
2012,06,20,11,20,16.80
2012,06,20,11,21,16.80
2012,06,20,11,22,16.70
2012,06,20,11,23,16.70
2012,06,20,11,24,16.70
2012,06,20,11,25,16.70
2012,06,20,11,26,16.70
2012,06,20,11,27,16.70
2012,06,20,11,28,16.80
2012,06,20,11,29,16.80
2012,06,20,11,30,17.00
2012,06,20,11,31,17.10
2012,06,20,11,32,17.10
2012,06,20,11,33,17.20
2012,06,20,11,34,17.30
2012,06,20,11,35,17.40
2012,06,20,11,36,17.50
2012,06,20,11,37,17.60
2012,06,20,11,38,17.50
2012,06,20,11,39,17.40
2012,06,20,11,40,17.50
2012,06,20,11,41,17.60
2012,06,20,11,42,17.70
2012,06,20,11,43,17.80
2012,06,20,11,44,17.80
2012,06,20,11,45,17.70
2012,06,20,11,46,17.70
2012,06,20,11,47,17.70
2012,06,20,11,48,17.70
2012,06,20,11,49,17.70
2012,06,20,11,50,17.70
2012,06,20,11,51,17.70
2012,06,20,11,52,17.60
2012,06,20,11,53,17.40
2012,06,20,11,54,17.30
2012,06,20,11,55,17.30
2012,06,20,11,56,17.30
2012,06,20,11,57,17.40
2012,06,20,11,58,17.40
2012,06,20,11,59,17.40
2012,06,20,12,00,17.50
2012,06,20,12,01,17.50
2012,06,20,12,02,17.60
2012,06,20,12,03,17.70
2012,06,20,12,04,17.70
2012,06,20,12,05,17.70
2012,06,20,12,06,17.70
2012,06,20,12,07,17.70
2012,06,20,12,08,17.60
2012,06,20,12,09,17.50
2012,06,20,12,10,17.40
2012,06,20,12,11,17.40
2012,06,20,12,12,17.50
2012,06,20,12,13,17.50
2012,06,20,12,14,17.60
2012,06,20,12,15,17.70
2012,06,20,12,16,17.70
2012,06,20,12,17,17.80
2012,06,20,12,18,17.80
2012,06,20,12,19,17.80
2012,06,20,12,20,17.80
2012,06,20,12,21,17.80
2012,06,20,12,22,17.80
2012,06,20,12,23,17.80
2012,06,20,12,24,17.80
2012,06,20,12,25,17.80
2012,06,20,12,26,17.80
2012,06,20,12,27,17.80
2012,06,20,12,28,17.70
2012,06,20,12,29,17.70
2012,06,20,12,30,17.70
2012,06,20,12,31,17.80
2012,06,20,12,32,17.80
2012,06,20,12,33,17.90
2012,06,20,12,34,17.90
2012,06,20,12,35,17.90
2012,06,20,12,36,17.90
2012,06,20,12,37,17.80
2012,06,20,12,38,17.80
2012,06,20,12,39,17.90
2012,06,20,12,40,18.10
2012,06,20,12,41,18.10
2012,06,20,12,42,18.10
2012,06,20,12,43,18.10
2012,06,20,12,44,18.10
2012,06,20,12,45,18.10
2012,06,20,12,46,18.10
2012,06,20,12,47,18.00
2012,06,20,12,48,18.00
2012,06,20,12,49,18.00
2012,06,20,12,50,18.00
2012,06,20,12,51,17.90
2012,06,20,12,52,17.90
2012,06,20,12,53,18.00
2012,06,20,12,54,18.00
2012,06,20,12,55,18.10
2012,06,20,12,56,18.10
2012,06,20,12,57,18.10
2012,06,20,12,58,18.10
2012,06,20,12,59,18.10
2012,06,20,13,00,18.10
2012,06,20,13,01,18.00
2012,06,20,13,02,18.00
2012,06,20,13,03,17.90
2012,06,20,13,04,17.90
2012,06,20,13,05,17.80
2012,06,20,13,06,17.70
2012,06,20,13,07,17.60
2012,06,20,13,08,17.60
2012,06,20,13,09,17.50
2012,06,20,13,10,17.40
2012,06,20,13,11,17.30
2012,06,20,13,12,17.30
2012,06,20,13,13,17.30
2012,06,20,13,14,17.40
2012,06,20,13,15,17.40
2012,06,20,13,16,17.40
2012,06,20,13,17,17.40
2012,06,20,13,18,17.40
2012,06,20,13,19,17.50
2012,06,20,13,20,17.70
2012,06,20,13,21,17.80
2012,06,20,13,22,17.90
2012,06,20,13,23,17.70
2012,06,20,13,24,17.70
2012,06,20,13,25,17.60
2012,06,20,13,26,17.50
2012,06,20,13,27,17.40
2012,06,20,13,28,17.50
2012,06,20,13,29,17.60
2012,06,20,13,30,17.80
2012,06,20,13,31,17.90
2012,06,20,13,32,17.90
2012,06,20,13,33,17.90
2012,06,20,13,34,17.80
2012,06,20,13,35,17.90
2012,06,20,13,36,17.90
2012,06,20,13,37,17.90
2012,06,20,13,38,18.00
2012,06,20,13,39,18.10
2012,06,20,13,40,18.10
2012,06,20,13,41,18.20
2012,06,20,13,42,18.20
2012,06,20,13,43,18.10
2012,06,20,13,44,18.00
2012,06,20,13,45,17.90
2012,06,20,13,46,17.80
2012,06,20,13,47,17.80
2012,06,20,13,48,17.80
2012,06,20,13,49,17.90
2012,06,20,13,50,18.10
2012,06,20,13,51,18.40
2012,06,20,13,52,18.60
2012,06,20,13,53,18.70
2012,06,20,13,54,18.70
2012,06,20,13,55,18.60
2012,06,20,13,56,18.40
2012,06,20,13,57,18.30
2012,06,20,13,58,18.30
2012,06,20,13,59,18.20
2012,06,20,14,00,18.20
2012,06,20,14,01,18.20
2012,06,20,14,02,18.10
2012,06,20,14,03,18.10
2012,06,20,14,04,18.00
2012,06,20,14,05,18.00
2012,06,20,14,06,18.10
2012,06,20,14,07,18.10
2012,06,20,14,08,18.20
2012,06,20,14,09,18.20
2012,06,20,14,10,18.20
2012,06,20,14,11,18.30
2012,06,20,14,12,18.30
2012,06,20,14,13,18.40
2012,06,20,14,14,18.40
2012,06,20,14,15,18.40
2012,06,20,14,16,18.40
2012,06,20,14,17,18.40
2012,06,20,14,18,18.40
2012,06,20,14,19,18.60
2012,06,20,14,20,18.80
2012,06,20,14,21,19.00
2012,06,20,14,22,19.10
2012,06,20,14,23,19.20
2012,06,20,14,24,19.20
2012,06,20,14,25,19.20
2012,06,20,14,26,19.20
2012,06,20,14,27,19.10
2012,06,20,14,28,19.00
2012,06,20,14,29,19.00
2012,06,20,14,30,19.00
2012,06,20,14,31,18.90
2012,06,20,14,32,18.80
2012,06,20,14,33,18.70
2012,06,20,14,34,18.70
2012,06,20,14,35,18.70
2012,06,20,14,36,18.70
2012,06,20,14,37,18.80
2012,06,20,14,38,18.80
2012,06,20,14,39,18.90
2012,06,20,14,40,18.90
2012,06,20,14,41,18.90
2012,06,20,14,42,19.00
2012,06,20,14,43,19.00
2012,06,20,14,44,18.90
2012,06,20,14,45,18.90
2012,06,20,14,46,18.80
2012,06,20,14,47,18.90
2012,06,20,14,48,18.90
2012,06,20,14,49,18.90
2012,06,20,14,50,18.90
2012,06,20,14,51,18.80
2012,06,20,14,52,18.70
2012,06,20,14,53,18.70
2012,06,20,14,54,18.80
2012,06,20,14,55,18.80
2012,06,20,14,56,18.80
2012,06,20,14,57,18.90
2012,06,20,14,58,18.90
2012,06,20,14,59,19.00
2012,06,20,15,00,19.10
2012,06,20,15,01,19.30
2012,06,20,15,02,19.50
2012,06,20,15,03,19.60
2012,06,20,15,04,19.60
2012,06,20,15,05,19.40
2012,06,20,15,06,19.30
2012,06,20,15,07,19.10
2012,06,20,15,08,19.10
2012,06,20,15,09,19.10
2012,06,20,15,10,19.10
2012,06,20,15,11,19.10
2012,06,20,15,12,19.20
2012,06,20,15,13,19.30
2012,06,20,15,14,19.30
2012,06,20,15,15,19.40
2012,06,20,15,16,19.40
2012,06,20,15,17,19.30
2012,06,20,15,18,19.30
2012,06,20,15,19,19.30
2012,06,20,15,20,19.30
2012,06,20,15,21,19.30
2012,06,20,15,22,19.40
2012,06,20,15,23,19.50
2012,06,20,15,24,19.60
2012,06,20,15,25,19.60
2012,06,20,15,26,19.50
2012,06,20,15,27,19.50
2012,06,20,15,28,19.50
2012,06,20,15,29,19.40
2012,06,20,15,30,19.40
2012,06,20,15,31,19.20
2012,06,20,15,32,19.10
2012,06,20,15,33,19.00
2012,06,20,15,34,18.90
2012,06,20,15,35,18.90
2012,06,20,15,36,19.00
2012,06,20,15,37,19.10
2012,06,20,15,38,19.20
2012,06,20,15,39,19.20
2012,06,20,15,40,19.10
2012,06,20,15,41,19.10
2012,06,20,15,42,19.10
2012,06,20,15,43,19.10
2012,06,20,15,44,19.10
2012,06,20,15,45,19.10
2012,06,20,15,46,19.00
2012,06,20,15,47,18.90
2012,06,20,15,48,18.90
2012,06,20,15,49,18.90
2012,06,20,15,50,18.90
2012,06,20,15,51,18.90
2012,06,20,15,52,18.80
2012,06,20,15,53,18.80
2012,06,20,15,54,18.80
2012,06,20,15,55,18.90
2012,06,20,15,56,18.90
2012,06,20,15,57,18.90
2012,06,20,15,58,18.90
2012,06,20,15,59,18.90
2012,06,20,16,00,19.00
2012,06,20,16,01,19.00
2012,06,20,16,02,19.00
2012,06,20,16,03,18.90
2012,06,20,16,04,18.90
2012,06,20,16,05,18.90
2012,06,20,16,06,18.90
2012,06,20,16,07,18.90
2012,06,20,16,08,18.90
2012,06,20,16,09,19.00
2012,06,20,16,10,19.00
2012,06,20,16,11,18.90
2012,06,20,16,12,18.90
2012,06,20,16,13,18.90
2012,06,20,16,14,18.90
2012,06,20,16,15,18.90
2012,06,20,16,16,18.90
2012,06,20,16,17,19.00
2012,06,20,16,18,19.10
2012,06,20,16,19,19.10
2012,06,20,16,20,19.20
2012,06,20,16,21,19.20
2012,06,20,16,22,19.20
2012,06,20,16,23,19.30
2012,06,20,16,24,19.30
2012,06,20,16,25,19.30
2012,06,20,16,26,19.20
2012,06,20,16,27,19.20
2012,06,20,16,28,19.30
2012,06,20,16,29,19.30
2012,06,20,16,30,19.30
2012,06,20,16,31,19.30
2012,06,20,16,32,19.30
2012,06,20,16,33,19.50
2012,06,20,16,34,19.70
2012,06,20,16,35,19.80
2012,06,20,16,36,19.80
2012,06,20,16,37,19.70
2012,06,20,16,38,19.70
2012,06,20,16,39,19.70
2012,06,20,16,40,19.70
2012,06,20,16,41,19.80
2012,06,20,16,42,19.80
2012,06,20,16,43,19.70
2012,06,20,16,44,19.60
2012,06,20,16,45,19.60
2012,06,20,16,46,19.50
2012,06,20,16,47,19.40
2012,06,20,16,48,19.40
2012,06,20,16,49,19.40
2012,06,20,16,50,19.40
2012,06,20,16,51,19.40
2012,06,20,16,52,19.40
2012,06,20,16,53,19.40
2012,06,20,16,54,19.40
2012,06,20,16,55,19.40
2012,06,20,16,56,19.40
2012,06,20,16,57,19.60
2012,06,20,16,58,19.70
2012,06,20,16,59,19.70
2012,06,20,17,00,19.70
2012,06,20,17,01,19.60
2012,06,20,17,02,19.60
2012,06,20,17,03,19.60
2012,06,20,17,04,19.50
2012,06,20,17,05,19.50
2012,06,20,17,06,19.40
2012,06,20,17,07,19.40
2012,06,20,17,08,19.30
2012,06,20,17,09,19.30
2012,06,20,17,10,19.20
2012,06,20,17,11,19.20
2012,06,20,17,12,19.20
2012,06,20,17,13,19.10
2012,06,20,17,14,19.10
2012,06,20,17,15,19.10
2012,06,20,17,16,19.10
2012,06,20,17,17,19.20
2012,06,20,17,18,19.20
2012,06,20,17,19,19.20
2012,06,20,17,20,19.20
2012,06,20,17,21,19.20
2012,06,20,17,22,19.20
2012,06,20,17,23,19.10
2012,06,20,17,24,19.10
2012,06,20,17,25,19.10
2012,06,20,17,26,19.20
2012,06,20,17,27,19.30
2012,06,20,17,28,19.40
2012,06,20,17,29,19.50
2012,06,20,17,30,19.50
2012,06,20,17,31,19.50
2012,06,20,17,32,19.50
2012,06,20,17,33,19.50
2012,06,20,17,34,19.40
2012,06,20,17,35,19.30
2012,06,20,17,36,19.30
2012,06,20,17,37,19.20